Weather History for Falfurrias, TX

Change the Weather History Date:

Sunday, February 3, 2013

  Actual Average (KNQI) Record (KNQI)
Temperature  
Mean Temperature 66 °F -  
Max Temperature 78 °F 67 °F 45 °F (2014)
Min Temperature 54 °F 49 °F 39 °F (2014)
Cooling Degree Days 1    
Growing Degree Days 16 (Base 50)    
Moisture  
Dew Point 56 °F    
Average Humidity 76    
Maximum Humidity 97    
Minimum Humidity 34    
Precipitation  
Precipitation 0.00 in - - ()
Sea Level Pressure  
Sea Level Pressure 30.19 in    
Wind  
Wind Speed 4 mph (East)    
Max Wind Speed 16 mph    
Max Gust Speed 22 mph    
Visibility 9 miles    
Events      
Averages and records for this station are not official NWS values.
T = Trace of Precipitation, MM = Missing Value Source: NWS Daily Summary

Daily Weather History Graph

Daily Weather History Graph

Search for Another Location

Airport:

Trip Planner

Search our weather history database for the weather conditions in past years. The results will help you decide how hot, cold, wet, or windy it might be!

Date:

Astronomy

Feb. 03, 2013 Rise Set
Actual Time 7:17 AM CST 6:15 PM CST
Civil Twilight 6:52 AM CST 6:40 PM CST
Nautical Twilight 6:25 AM CST 7:07 PM CST
Astronomical Twilight 5:57 AM CST 7:35 PM CST
Moon 12:45 AM CST (2/3) 11:57 AM CST (2/3)
Length of Visible Light 11h 47m
Length of Day
10h 58m
Waning Gibbous, 48% of the Moon is Illuminated
Feb 3
Waning Gibbous
Feb 10
New
Feb 17
First Quarter
Feb 25
Full
Mar 4
Last Quarter

Hourly Weather History & Observations

Time (CST) Temp. Dew Point Humidity Pressure Visibility Wind Dir Wind Speed Gust Speed Precip Events Conditions
12:15 AM 62.4 °F 58.6 °F 87% 30.24 in 10.0 mi Calm Calm - N/A   Scattered Clouds
12:35 AM 61.2 °F 57.9 °F 89% 30.24 in 10.0 mi Calm Calm - N/A   Scattered Clouds
12:55 AM 61.3 °F 58.5 °F 90% 30.24 in 10.0 mi Calm Calm - N/A   Clear
1:15 AM 60.3 °F 57.6 °F 91% 30.24 in 10.0 mi Calm Calm - N/A   Clear
1:35 AM 59.0 °F 56.8 °F 93% 30.24 in 10.0 mi Calm Calm - N/A   Clear
1:55 AM 58.1 °F 56.3 °F 94% 30.24 in 10.0 mi NNE 3.5 mph - N/A   Clear
2:15 AM 58.3 °F 56.3 °F 93% 30.24 in 10.0 mi Calm Calm - N/A   Scattered Clouds
2:35 AM 57.9 °F 56.1 °F 94% 30.23 in 10.0 mi Calm Calm - N/A   Mostly Cloudy
2:55 AM 58.1 °F 56.3 °F 94% 30.23 in 10.0 mi Calm Calm - N/A   Mostly Cloudy
3:15 AM 58.6 °F 56.7 °F 93% 30.23 in 10.0 mi Calm Calm - N/A   Scattered Clouds
3:35 AM 57.2 °F 55.6 °F 94% 30.24 in 10.0 mi Calm Calm - N/A   Clear
3:55 AM 57.4 °F 56.1 °F 96% 30.24 in 10.0 mi Calm Calm - N/A   Scattered Clouds
4:15 AM 57.6 °F 56.1 °F 95% 30.24 in 10.0 mi Calm Calm - N/A   Mostly Cloudy
4:35 AM 57.4 °F 55.8 °F 94% 30.24 in 10.0 mi Calm Calm - N/A   Scattered Clouds
4:55 AM 56.7 °F 55.4 °F 96% 30.24 in 10.0 mi Calm Calm - N/A   Scattered Clouds
5:15 AM 56.3 °F 54.9 °F 95% 30.24 in 10.0 mi NNW 3.5 mph - N/A   Mostly Cloudy
5:35 AM 56.7 °F 55.4 °F 96% 30.24 in 7.0 mi Calm Calm - N/A   Scattered Clouds
5:55 AM 55.6 °F 54.5 °F 96% 30.24 in 7.0 mi Calm Calm - N/A   Clear
6:15 AM 55.0 °F 53.6 °F 95% 30.25 in 10.0 mi Calm Calm - N/A   Clear
6:35 AM 55.0 °F 53.6 °F 95% 30.25 in 10.0 mi Calm Calm - N/A   Clear
6:55 AM 54.0 °F 52.7 °F 95% 30.25 in 7.0 mi Calm Calm - N/A   Clear
7:15 AM 54.5 °F 53.6 °F 97% 30.27 in 0.8 mi NNE 5.8 mph - N/A   Overcast
7:35 AM 54.9 °F 54.0 °F 97% 30.27 in 0.5 mi NNE 6.9 mph - N/A   Overcast
7:55 AM 54.9 °F 54.0 °F 97% 30.28 in 0.2 mi NNE 6.9 mph - N/A   Overcast
8:15 AM 55.2 °F 54.5 °F 97% 30.28 in 0.2 mi NE 4.6 mph - N/A   Overcast
8:55 AM 57.0 °F 56.1 °F 97% 30.29 in 0.8 mi NE 4.6 mph - N/A   Overcast
9:15 AM 58.1 °F 57.4 °F 97% 30.29 in 3.0 mi NE 5.8 mph - N/A   Overcast
9:35 AM 59.2 °F 58.3 °F 97% 30.30 in 7.0 mi NNE 4.6 mph - N/A   Overcast
9:55 AM 61.2 °F 59.0 °F 93% 30.30 in 7.0 mi NNE 6.9 mph - N/A   Overcast
10:15 AM 63.0 °F 59.9 °F 90% 30.30 in 10.0 mi ENE 5.8 mph - N/A   Overcast
10:35 AM 66.0 °F 60.6 °F 83% 30.30 in 10.0 mi ENE 5.8 mph - N/A   Scattered Clouds
10:55 AM 68.9 °F 61.2 °F 76% 30.29 in 10.0 mi ENE 6.9 mph - N/A   Clear
11:15 AM 71.8 °F 61.7 °F 70% 30.28 in 10.0 mi ESE 4.6 mph - N/A   Clear
11:35 AM 73.6 °F 60.8 °F 64% 30.27 in 10.0 mi East 3.5 mph - N/A   Clear
11:55 AM 73.9 °F 58.8 °F 59% 30.26 in 10.0 mi East 6.9 mph - N/A   Clear
12:15 PM 75.6 °F 57.2 °F 53% 30.24 in 10.0 mi ESE 6.9 mph - N/A   Clear
12:35 PM 76.3 °F 54.5 °F 47% 30.23 in 10.0 mi ESE 6.9 mph - N/A   Scattered Clouds
12:55 PM 76.6 °F 51.8 °F 42% 30.22 in 10.0 mi East 10.4 mph - N/A   Scattered Clouds
1:15 PM 78.1 °F 51.3 °F 39% 30.20 in 10.0 mi SE 9.2 mph 16.1 mph N/A   Clear
1:35 PM 77.5 °F 51.3 °F 40% 30.19 in 10.0 mi SE 4.6 mph 17.3 mph N/A   Clear
2:15 PM 78.1 °F 51.6 °F 40% 30.15 in 10.0 mi East 8.1 mph - N/A   Mostly Cloudy
2:35 PM 77.7 °F 50.5 °F 38% 30.14 in 10.0 mi East 6.9 mph 18.4 mph N/A   Mostly Cloudy
2:55 PM 78.3 °F 48.0 °F 34% 30.14 in 10.0 mi ESE 10.4 mph - N/A   Mostly Cloudy
3:15 PM 78.4 °F 48.4 °F 35% 30.13 in 10.0 mi SE 11.5 mph 16.1 mph N/A   Mostly Cloudy
3:35 PM 78.8 °F 48.0 °F 34% 30.12 in 10.0 mi ESE 10.4 mph - N/A   Mostly Cloudy
3:55 PM 77.4 °F 48.9 °F 37% 30.12 in 10.0 mi ESE 13.8 mph 19.6 mph N/A   Scattered Clouds
4:15 PM 76.3 °F 48.6 °F 38% 30.11 in 10.0 mi ESE 13.8 mph 18.4 mph N/A   Scattered Clouds
4:35 PM 76.3 °F 50.0 °F 40% 30.11 in 10.0 mi ESE 12.7 mph 18.4 mph N/A   Clear
4:55 PM 75.2 °F 52.0 °F 44% 30.11 in 10.0 mi East 16.1 mph 20.7 mph N/A   Clear
5:15 PM 74.7 °F 52.5 °F 46% 30.11 in 10.0 mi ESE 13.8 mph 19.6 mph N/A   Clear
5:35 PM 73.2 °F 53.4 °F 50% 30.10 in 10.0 mi ESE 15.0 mph 21.9 mph N/A   Clear
5:55 PM 72.3 °F 54.1 °F 53% 30.10 in 10.0 mi ESE 12.7 mph 17.3 mph N/A   Clear
6:15 PM 71.1 °F 55.0 °F 57% 30.10 in 10.0 mi ESE 10.4 mph 18.4 mph N/A   Clear
6:35 PM 69.8 °F 56.3 °F 62% 30.10 in 10.0 mi ESE 9.2 mph - N/A   Clear
6:55 PM 68.9 °F 57.2 °F 66% 30.10 in 10.0 mi ESE 8.1 mph - N/A   Clear
7:15 PM 67.8 °F 57.9 °F 71% 30.10 in 10.0 mi ESE 4.6 mph - N/A   Clear
7:35 PM 67.1 °F 58.8 °F 75% 30.10 in 10.0 mi ESE 4.6 mph - N/A   Clear
7:55 PM 67.1 °F 59.5 °F 77% 30.09 in 10.0 mi ESE 8.1 mph - N/A   Clear
8:15 PM 66.2 °F 60.1 °F 81% 30.10 in 10.0 mi ESE 6.9 mph - N/A   Clear
8:35 PM 65.8 °F 60.8 °F 84% 30.09 in 10.0 mi ESE 8.1 mph - N/A   Clear
8:55 PM 65.7 °F 60.8 °F 84% 30.09 in 10.0 mi ESE 6.9 mph - N/A   Clear
9:15 PM 65.5 °F 61.0 °F 85% 30.09 in 10.0 mi ESE 6.9 mph - N/A   Clear
9:35 PM 64.8 °F 60.8 °F 87% 30.08 in 10.0 mi ESE 4.6 mph - N/A   Clear
9:55 PM 64.0 °F 60.1 °F 87% 30.08 in 10.0 mi ESE 3.5 mph - N/A   Clear
10:15 PM 63.0 °F 59.4 °F 88% 30.08 in 10.0 mi SE 3.5 mph - N/A   Clear
10:35 PM 62.6 °F 59.4 °F 89% 30.07 in 10.0 mi SE 4.6 mph - N/A   Clear
10:55 PM 62.2 °F 59.0 °F 89% 30.06 in 10.0 mi ESE 4.6 mph - N/A   Clear
11:15 PM 62.2 °F 58.6 °F 88% 30.05 in 10.0 mi SE 4.6 mph - N/A   Clear
11:35 PM 62.1 °F 58.5 °F 88% 30.04 in 10.0 mi ESE 4.6 mph - N/A   Clear
11:55 PM 61.7 °F 58.3 °F 89% 30.04 in 10.0 mi SSE 4.6 mph - N/A   Clear